Location: Peebles
(55.6412°N, 3.1714°W)
Time: 10:23:51
(UTC+01:00)

FENGYUN 1C DEB - Pass Details

Date: 05 July 2022
Orbit: 580 x 1160 km, 99.3° (Epoch: 14 August)

Event Time Altitude Azimuth Distance (km) Brightness Sun altitude
Exits shadow 00:14:59 12° 149° (SSE) 2,438 ? -10.4°
Maximum altitude 00:20:25 71° 67° (ENE) 1,052 ? -10.6°
Drops below altitude 10° 00:27:05 10° 345° (NNW) 2,951 ? -10.8°
Sets 00:29:48 0° 343° (NNW) 3,966 ? -10.9°
